Погода в Назарете

Израиль     32°42′14″N   35°17′24″E
темп.,
°C
ветер,
м/с
пор.,
м/с
влажн.,
%
обл.,
%
осадки,
мм/ч
давл.,
гПа
погр.,
м
19 апреля, пн
пн1900:00+25в222744 0.0 101411
03:00+25в3328100 0.0 101326
06:00+24в4526100 0.0 101367
09:00+30в5822100 0.0 1013297
12:00+36вюв4515100 0.0 1012827
15:00+38зюз2413100 0.0 10102996
18:00+31ссз2229100 0.0 101040
21:00+29сз1120100 0.0 101011
20 апреля, вт
вт2000:00+27вюв2219100 0.0 101012
03:00+25зюз112344 0.0 100911
06:00+24зюз112499 0.0 101011
09:00+26зсз3338100 0.0 1012292
12:00+29зсз553397 0.0 1012651
15:00+24зсз675179 0.0 1013556
18:00+20зсз686113 0.0 1014468
21:00+16зсз57835 0.0 1015275
21 апреля, ср
ср2100:00+15зсз36850 0.0 1016134
03:00+14зсз34875 0.0 101665
06:00+13зсз22895 0.0 101734
09:00+19сз34568 0.0 1018637
12:00+23зсз66408 0.0 1017774
15:00+22зсз894249 0.0 1016677
18:00+19сз6953100 0.0 1016451
21:00+14сз4780100 0.0 1018192
22 апреля, чт
чт2200:00+13зсз2286100 0.0 101932
03:00+12зсз3389100 0.0 101945
06:00+12ссз1190100 0.0 101810
09:00+18сз34577 0.0 1019554
12:00+22зсз77395 0.0 1019770
15:00+22сз99390 0.0 1018676
18:00+19сз69500 0.0 1017443
21:00+13сз34814 0.0 101854
23 апреля, пт
пт2300:00+12зсз22840 0.0 101823
03:00+11сз22870 0.0 101813
06:00+11сз11870 0.0 101810
09:00+19ссв12510 0.0 1018446
12:00+26ссз12240 0.0 1017934
15:00+25зсз654040 0.0 1015575
18:00+22зсз454924 0.0 1014275
21:00+15зсз22730 0.0 101412